Vorticity
9 11 10 13 13 13 12 11 13 13 14 14 14 15 14 13 11 7 6 8 10 8 3 5 4 9 13 21 8 5 3 4 6 6 8 -2 5 10 1 -2 -2 5 -4 2 -4 -1 9
11 10 11 11 13 12 15 13 13 13 12 13 13 13 12 10 7 7 6 4 4 3 10 5 7 10 7 7 7 7 11 15 -1 7 7 6 5 3 -2 8 5 18 0 -5 3 -1 -3
11 8 11 10 11 12 12 13 12 12 11 11 11 10 9 7 7 8 8 8 8 11 3 1 3 5 3 10 7 11 9 7 7 11 12 18 15 -2 4 4 4 6 5 15 25 11 -7
9 10 10 10 10 11 11 10 9 10 11 10 9 9 7 5 6 7 9 8 8 2 7 4 7 7 11 8 8 5 5 7 9 9 -2 3 1 -0 5 23 10 16 6 7 13 31 -1
7 8 10 10 9 10 10 8 8 9 8 7 8 8 7 6 5 6 8 7 9 5 3 2 2 4 4 6 6 5 3 3 8 -2 2 4 0 4 -5 6 5 3 -7 -3 30 6 7
6 7 9 8 9 10 9 8 7 8 7 7 8 8 9 7 7 7 7 6 2 2 -1 2 3 3 5 9 5 12 7 8 9 6 -0 -4 0 5 16 11 5 -1 5 -2 3 1 -0
5 6 7 9 10 10 10 9 7 8 7 8 9 9 8 9 9 9 5 4 3 6 2 2 7 9 14 7 4 10 9 9 1 5 5 3 -1 2 -1 8 5 -3 14 8 6 -9 20
4 4 5 6 9 10 11 11 10 8 10 9 12 10 9 9 6 5 3 4 -1 13 4 1 13 7 6 9 9 9 7 11 10 -1 7 17 15 2 12 7 5 3 7 5 12 8 17
5 5 5 5 6 7 9 11 11 9 8 8 9 9 9 7 5 0 5 1 6 7 7 7 3 2 13 10 5 7 14 13 11 4 6 2 3 3 14 6 6 4 21 4 5 12 21
4 5 5 7 6 6 7 8 11 12 11 9 8 7 8 8 6 3 17 4 3 5 4 8 3 4 13 14 -4 9 13 9 9 1 24 7 -1 5 13 18 7 18 2 5 5 15 4
4 5 5 6 8 8 7 7 7 7 10 12 11 9 11 5 9 15 10 7 2 2 0 2 4 9 -1 15 15 6 5 16 11 18 14 1 2 7 -19 7 3 -2 12 0 20 19 19
4 5 5 6 7 7 9 8 7 7 7 8 12 10 11 8 8 9 2 3 12 1 9 5 9 4 7 6 13 3 4 7 6 11 2 7 18 11 6 -5 29 14 17 45 17 13 1
4 4 5 7 7 7 9 10 9 8 7 7 7 9 9 9 13 9 5 10 -2 12 5 7 -1 22 2 14 13 1 10 15 10 23 14 5 9 2 -2 7 2 2 29 2 3 4 -4
4 4 6 5 6 7 8 10 13 11 8 7 5 9 8 10 11 9 12 -0 6 15 20 11 22 3 8 11 12 -1 -2 6 7 13 16 8 14 3 -7 11 14 0 11 23 9 5 -21
4 5 6 5 5 6 7 8 13 12 12 11 8 6 8 10 9 11 7 3 13 12 5 4 2 26 4 2 -4 11 2 8 4 9 23 13 18 5 14 5 15 2 1 18 14 16 17
5 4 5 6 5 7 6 7 12 13 13 13 12 10 8 10 11 10 4 5 9 9 2 7 6 15 -2 9 1 9 8 2 12 3 11 1 16 -1 9 31 1 7 21 8 9 9 13
7 5 5 6 6 6 7 4 9 12 14 14 10 14 12 12 8 11 1 2 11 11 13 1 3 3 5 11 10 7 5 8 -5 14 10 11 12 -7 27 9 8 16 -2 18 14 13 2
6 7 5 5 7 6 6 6 2 12 9 9 12 9 10 8 5 9 8 5 6 10 11 10 10 12 7 12 10 4 5 1 6 3 13 1 14 -5 16 27 5 -7 -15 -19 19 -17 -20
7 6 7 6 6 6 6 7 6 3 2 2 15 18 10 5 10 5 5 10 8 7 7 15 13 9 11 6 9 5 7 6 7 6 2 7 -5 12 12 7 -19 -5 -2 -9 7 34 -1
6 7 6 8 7 6 5 6 10 7 3 4 4 9 10 9 13 19 18 10 10 6 7 7 9 9 7 5 10 8 10 -2 -1 -3 5 9 -1 3 -15 -13 -2 1 -1 3 12 23 -16
6 6 6 6 8 7 6 5 7 10 11 6 6 6 -1 13 6 2 6 1 4 10 7 9 5 5 5 9 6 8 15 -1 -5 5 12 5 8 1 4 8 -4 6 7 6 13 29 35
7 7 7 6 6 7 6 5 6 6 7 10 11 6 5 5 9 8 -1 2 1 6 2 14 12 -3 -1 4 4 -0 0 2 3 5 8 7 18 5 2 20 26 0 14 44 21 -5 -9
7 7 7 6 6 7 7 6 6 6 7 7 7 7 5 12 7 8 10 8 5 -1 7 -0 -2 11 8 9 9 8 10 12 13 9 10 13 29 18 10 8 3 52 4 -0 -10 19 37
6 6 6 6 7 7 8 7 7 7 6 5 6 7 7 7 9 11 7 8 6 4 7 9 4 -1 1 7 7 3 11 16 33 22 15 13 18 28 -7 18 26 -24 -18 29 26 -4 12
7 6 7 7 6 7 6 7 7 7 6 6 5 6 7 5 8 9 10 5 7 7 4 2 1 6 8 6 5 15 10 34 -2 22 5 1 13 6 15 -4 -11 12 32 2 -3 10 17
9 8 7 7 8 7 6 6 7 7 6 7 7 6 6 7 7 8 10 10 11 12 14 9 8 6 8 7 15 4 -3 8 13 11 5 11 11 3 -5 10 4 -22 5 24 4 8 -39
6 7 8 7 6 8 8 7 7 7 6 5 5 7 7 7 9 9 10 9 7 8 7 10 8 6 8 12 6 17 6 6 12 -0 -5 9 4 9 13 0 -1 -7 32 14 18 -30 -14
10 9 5 8 8 8 8 8 6 6 6 6 6 5 5 7 6 4 5 6 7 9 10 4 9 4 19 21 20 12 7 19 10 -2 -4 2 13 -1 24 25 9 11 -1 -35 -18 3 34
7 6 8 6 7 8 9 8 8 8 6 6 6 7 7 7 -3 4 7 11 3 1 7 8 4 1 -11 -4 -17 -5 -18 -2 1 -2 15 16 -1 -4 -16 -45 -22 0 9 33 25 24 8
Height
3127 3125 3124 3123 3123 3122 3120 3118 3122 3123 3123 3124 3126 3128 3131 3134 3137 3141 3144 3147 3149 3151 3152 3155 3157 3157 3159 3160 3158 3160 3159 3161 3162 3162 3160 3162 3163 3165 3163 3166 3165 3166 3167 3165 3166 3164 3162
3126 3125 3124 3124 3123 3122 3122 3122 3123 3124 3125 3126 3129 3131 3134 3137 3140 3143 3145 3148 3150 3153 3155 3157 3158 3158 3161 3162 3162 3163 3164 3164 3165 3166 3165 3165 3165 3167 3163 3165 3166 3166 3166 3164 3163 3162 3161
3127 3125 3125 3124 3124 3124 3123 3124 3125 3126 3127 3128 3131 3134 3136 3139 3142 3144 3147 3150 3153 3155 3156 3158 3160 3161 3162 3166 3164 3162 3164 3166 3168 3166 3167 3167 3168 3168 3167 3166 3166 3166 3166 3163 3161 3160 3159
3128 3127 3127 3126 3126 3126 3126 3127 3128 3129 3130 3131 3133 3136 3139 3141 3145 3148 3151 3154 3156 3158 3160 3160 3161 3162 3164 3165 3164 3165 3166 3167 3167 3167 3167 3167 3168 3168 3167 3166 3165 3165 3163 3161 3160 3158 3160
3130 3129 3129 3128 3128 3128 3128 3129 3130 3132 3133 3135 3137 3140 3143 3145 3148 3151 3153 3156 3158 3159 3160 3161 3162 3163 3163 3165 3166 3167 3168 3168 3168 3168 3168 3168 3167 3167 3167 3167 3166 3165 3162 3161 3159 3159 3160
3131 3131 3130 3130 3130 3131 3131 3132 3133 3134 3136 3137 3140 3142 3145 3147 3149 3152 3155 3157 3158 3159 3160 3161 3163 3166 3166 3167 3167 3167 3167 3167 3169 3168 3168 3168 3167 3167 3167 3165 3165 3163 3161 3160 3160 3159 3157
3134 3133 3133 3133 3133 3133 3134 3135 3136 3136 3138 3140 3142 3144 3147 3148 3150 3153 3154 3156 3161 3163 3162 3163 3164 3165 3166 3167 3167 3167 3166 3168 3168 3167 3167 3166 3167 3167 3167 3165 3165 3164 3162 3160 3158 3157 3153
3135 3135 3135 3135 3135 3136 3136 3137 3138 3139 3140 3142 3144 3146 3148 3150 3152 3154 3156 3158 3159 3162 3163 3164 3166 3167 3167 3167 3168 3166 3166 3167 3167 3166 3165 3166 3166 3167 3166 3164 3164 3162 3160 3158 3156 3154 3151
3136 3137 3137 3137 3137 3137 3137 3138 3140 3141 3143 3144 3145 3147 3149 3151 3154 3156 3157 3159 3160 3162 3164 3167 3167 3168 3168 3168 3168 3167 3166 3165 3165 3165 3164 3165 3166 3166 3165 3163 3162 3161 3158 3156 3154 3149 3149
3137 3138 3138 3139 3140 3140 3140 3140 3141 3142 3144 3145 3147 3149 3150 3152 3157 3156 3157 3160 3161 3163 3166 3170 3169 3169 3169 3167 3168 3166 3166 3167 3165 3165 3164 3165 3166 3165 3164 3163 3160 3158 3156 3153 3150 3149 3148
3138 3139 3140 3140 3141 3141 3141 3142 3143 3143 3145 3146 3148 3150 3152 3154 3156 3158 3160 3161 3163 3165 3168 3171 3170 3169 3168 3169 3169 3167 3166 3165 3165 3164 3166 3166 3165 3164 3163 3162 3159 3157 3152 3149 3147 3147 3148
3138 3139 3141 3141 3142 3142 3143 3144 3144 3145 3146 3147 3149 3151 3152 3155 3157 3159 3161 3162 3164 3168 3168 3170 3170 3170 3169 3169 3169 3167 3166 3166 3165 3165 3164 3163 3163 3163 3162 3161 3157 3154 3150 3145 3145 3146 3148
3137 3139 3141 3142 3142 3143 3144 3144 3145 3146 3147 3148 3150 3151 3153 3155 3157 3159 3161 3163 3166 3166 3170 3171 3170 3170 3170 3169 3169 3167 3166 3165 3165 3164 3163 3162 3161 3161 3160 3158 3156 3153 3147 3146 3149 3150 3150
3137 3139 3141 3142 3143 3144 3144 3145 3145 3146 3148 3149 3151 3152 3153 3155 3157 3159 3161 3165 3165 3168 3169 3170 3170 3170 3170 3169 3170 3168 3168 3166 3166 3165 3163 3162 3161 3160 3159 3158 3157 3154 3153 3154 3158 3159 3152
3136 3139 3141 3142 3143 3144 3145 3145 3146 3146 3147 3149 3151 3152 3154 3156 3157 3159 3162 3163 3165 3167 3169 3169 3169 3169 3170 3170 3171 3169 3168 3167 3167 3165 3166 3163 3162 3161 3159 3158 3158 3156 3155 3156 3155 3154 3154
3134 3137 3140 3142 3144 3145 3146 3147 3147 3147 3147 3149 3150 3153 3155 3156 3157 3159 3162 3162 3165 3166 3167 3167 3167 3169 3169 3170 3170 3169 3168 3169 3168 3167 3166 3165 3162 3160 3159 3158 3158 3157 3157 3157 3156 3158 3156
3132 3135 3138 3141 3143 3145 3147 3148 3147 3147 3148 3149 3151 3153 3154 3155 3157 3159 3160 3162 3163 3164 3166 3167 3167 3168 3168 3169 3169 3169 3169 3169 3168 3167 3166 3164 3163 3162 3158 3158 3157 3157 3155 3156 3156 3155 3153
3129 3133 3136 3139 3142 3144 3146 3148 3148 3148 3149 3150 3151 3153 3154 3156 3159 3159 3160 3162 3163 3164 3164 3165 3166 3167 3167 3168 3168 3168 3169 3169 3167 3166 3165 3164 3162 3160 3159 3156 3156 3156 3154 3153 3155 3155 3153
3126 3130 3134 3137 3140 3143 3145 3147 3148 3149 3150 3151 3152 3153 3155 3156 3158 3159 3160 3162 3163 3163 3164 3164 3165 3166 3166 3167 3168 3168 3168 3168 3166 3166 3165 3163 3161 3159 3158 3159 3157 3155 3151 3151 3151 3149 3146
3123 3127 3131 3135 3138 3141 3143 3145 3147 3148 3149 3151 3152 3153 3155 3156 3157 3159 3160 3162 3162 3163 3164 3165 3165 3166 3166 3166 3166 3167 3166 3166 3164 3164 3162 3161 3160 3159 3158 3158 3157 3150 3142 3145 3145 3141 3135
3119 3123 3127 3131 3135 3138 3140 3143 3145 3146 3148 3150 3151 3153 3154 3156 3157 3159 3160 3162 3162 3163 3164 3165 3165 3164 3165 3165 3165 3164 3163 3163 3163 3162 3160 3158 3156 3155 3151 3151 3150 3143 3139 3139 3136 3131 3128
3115 3120 3124 3128 3131 3135 3138 3140 3142 3144 3146 3148 3150 3151 3153 3155 3157 3158 3160 3161 3161 3162 3163 3164 3164 3163 3163 3163 3163 3161 3161 3160 3159 3158 3156 3155 3150 3149 3146 3145 3143 3135 3133 3131 3129 3126 3122
3110 3115 3120 3124 3127 3131 3134 3136 3139 3142 3144 3145 3148 3149 3152 3154 3155 3157 3158 3159 3159 3160 3161 3160 3162 3162 3162 3162 3159 3158 3157 3155 3154 3151 3149 3148 3146 3144 3142 3140 3140 3128 3125 3125 3123 3120 3115
3105 3110 3115 3119 3123 3127 3130 3133 3136 3138 3141 3143 3145 3147 3149 3151 3153 3155 3156 3156 3157 3158 3158 3158 3158 3158 3159 3156 3154 3153 3151 3149 3148 3147 3145 3143 3143 3142 3137 3137 3136 3126 3122 3119 3115 3114 3111
3099 3105 3110 3114 3118 3122 3125 3129 3132 3135 3138 3139 3141 3144 3146 3148 3150 3152 3153 3154 3154 3154 3155 3155 3155 3155 3154 3152 3151 3147 3145 3144 3144 3142 3142 3142 3141 3138 3135 3131 3126 3117 3114 3113 3109 3106 3104
3093 3099 3104 3109 3113 3117 3121 3124 3128 3131 3133 3135 3137 3140 3142 3144 3146 3147 3149 3150 3150 3151 3151 3150 3151 3150 3149 3148 3148 3145 3143 3142 3141 3140 3139 3139 3137 3136 3131 3128 3118 3109 3109 3106 3102 3097 3096
3087 3092 3098 3103 3107 3112 3115 3119 3123 3126 3129 3132 3134 3135 3137 3140 3141 3143 3144 3145 3145 3145 3145 3145 3145 3145 3144 3143 3142 3141 3139 3138 3137 3135 3135 3134 3132 3129 3125 3119 3111 3106 3103 3101 3099 3094 3087
3081 3086 3091 3097 3102 3106 3110 3114 3117 3121 3124 3127 3129 3131 3133 3135 3136 3137 3139 3139 3139 3140 3140 3141 3141 3139 3138 3137 3135 3135 3131 3131 3129 3129 3129 3129 3128 3122 3117 3113 3106 3102 3100 3100 3093 3082 3078
3075 3080 3085 3090 3096 3101 3104 3108 3112 3115 3118 3121 3123 3125 3126 3129 3131 3132 3133 3134 3134 3134 3135 3134 3135 3134 3134 3132 3131 3128 3127 3122 3121 3118 3121 3119 3120 3116 3112 3101 3098 3097 3093 3088 3083 3074 3067